User: anonymous   Login
Location: Unspecified
(0.0000°N, 0.0000°E)
Time: 21:25:42
(UTC+00:00)
Language:

PRISMA (TANGO) - Orbit

View from above orbital plane
View from above orbital plane
View from above satellite
View from above satellite

Ground track
Ground track

The orbit data is extracted from the following two-line orbital elements,

1 36827U 10028F   18051.91295928 +.00000046 +00000-0 +27006-4 0  9996
2 36827 098.4851 223.5721 0042847 013.6114 346.6220 14.42321892264704
Epoch (UTC): 20 February 2018 21:54:39
Eccentricity: 0.0042847
inclination: 98.4851°
perigee height: 720 km
apogee height: 781 km
right ascension of ascending node: 223.5721°
argument of perigee: 13.6114°
revolutions per day: 14.42321892
mean anomaly at epoch: 346.6220°
orbit number at epoch: 26470

The dashed part of the orbit path shows where the satellite is in the earth's shadow,  

DLR